Regional Weather Roundup
Issued by NWS

Home | Current Version | Previous Version | Text Only | Print | Product List | Glossary Off
Versions: 1 2 3 4 5 6 7 8 9 10 11 12 13 14 15 16 17 18 19 20 21 22 23 24 25 26 27

000
ASUS45 KBOU 251007
RWRCO

WEATHER ROUNDUP FOR COLORADO
NATIONAL WEATHER SERVICE DENVER/BOULDER CO
400 AM MDT SAT OCT 25 2014

NOTE: "FAIR" INDICATES FEW OR NO CLOUDS BELOW 12000 FEET WITH NO
SIGNIFICANT WEATHER AND/OR OBSTRUCTIONS TO VISIBILITY.

COZ001>005-013-030-031-251100-
...NORTHWEST COLORADO...

CITY           SKY/WX    TMP DP  RH WIND       PRES   REMARKS
CRAIG          CLEAR     28  24  85 CALM      30.32S
HAYDEN         CLEAR     39  25  56 E10       30.33S
MEEKER         CLEAR     35  27  72 E3        30.32F
MOUNT WERNER   NOT AVBL
STEAMBOAT SPGS CLEAR     34  26  71 CALM      30.35F
WALDEN         PTCLDY    32  18  55 E9        30.40S WCI  24
$$

COZ006>008-011-251100-
...WEST CENTRAL VALLEYS...

CITY           SKY/WX    TMP DP  RH WIND       PRES   REMARKS
GRAND JUNCTION CLEAR     46  32  58 E5        30.25S
MONTROSE       CLEAR     40  29  64 SE8       30.33F
EAGLE          CLEAR     34  27  75 CALM      30.42S
RIFLE          PTCLDY    36  30  79 CALM      30.31F
DELTA          CLEAR     42  29  60 CALM      30.30F
NUCLA          CLEAR     43  27  52 E9        30.35F
$$

COZ017>023-064>068-251100-
...SOUTHWEST COLORADO...

CITY           SKY/WX    TMP DP  RH WIND       PRES   REMARKS
DURANGO        PTCLDY    37  32  82 N5        30.37S
CORTEZ         CLEAR     33  26  75 CALM      30.33S
PAGOSA SPRINGS PTCLDY    37  31  78 CALM      30.42F
TELLURIDE      CLEAR     43  21  42 SE6       30.50F
WOLF CREEK PAS CLEAR     37  27  65 SW12        N/A
$$

COZ009-010-012-014-032>034-037-058>063-251100-
...CENTRAL COLORADO...

CITY           SKY/WX    TMP DP  RH WIND       PRES   REMARKS
ASPEN          CLEAR     35  20  54 SW7       30.41S WCI  29
BUENA VISTA    CLEAR     35  22  58 NW8       30.43F WCI  29
COPPER MTN     CLEAR     43   3  19 S14       30.63F
BERTHOUD PASS  FAIR      34  32  93 W20       30.64R WCI  22
COTTONWOOD PAS CLEAR     50   0  12 W9        30.51F
GUNNISON       PTCLDY    25  14  63 CALM      30.50S
KREMMLING      CLEAR     28  23  80 CALM        N/A
LEADVILLE      CLEAR     27  15  61 N3        30.51F
MONARCH PASS   PTCLDY    37   9  30 W21       30.72F
SALIDA         CLEAR     43  22  42 NW9       30.49S
SUNLIGHT       PTCLDY    43  19  39 SW3       30.57F
WILKERSON PASS NOT AVBL
$$

COZ069>075-251100-
...SAN LUIS VALLEY/SANGRE DE CRISTO MOUNTAINS...

CITY           SKY/WX    TMP DP  RH WIND       PRES   REMARKS
ALAMOSA        MOCLDY    32  24  72 W3        30.41S
LA VETA PASS   CLEAR     45  21  39 S6        30.52F
SAGUACHE       PTCLDY    41  19  42 N15       30.42F
$$

COZ035-036-038>040-251100-
...NORTHERN COLORADO FRONT RANGE...

CITY           SKY/WX    TMP DP  RH WIND       PRES   REMARKS
DENVER INTL AP CLEAR     51  23  33 VRB5      30.21S
DMNS CITY PARK   N/A     51  24  34 S8        30.21S
AURORA         CLEAR     51  24  34 S8        30.23S
FRONT RANGE AP CLEAR     59  25  27 SW13      30.22S
ERIE MUNI ARPT CLEAR     38  30  71 CALM      30.20F
BOULDER MUN AP CLEAR     50  27  40 SW3       30.20S
CENTENNIAL     CLEAR     50  22  33 SW9       30.23F
BROOMFIELD     CLEAR     57  21  24 W9        30.22S
FORT COLLINS   CLEAR     45  34  65 W3        30.21F
LONGMONT       CLEAR     39  29  69 CALM      30.22S HAZE
$$

COZ041-046-047-076>085-087-088-251100-
...PIKES PEAK/PALMER DIVIDE AND SOUTHERN FOOTHILLS...

CITY           SKY/WX    TMP DP  RH WIND       PRES   REMARKS
COLO. SPRINGS  CLEAR     51  23  33 N7        30.26F
A. F. ACADEMY  CLEAR     47  18  31 N7        30.27F
ELLICOTT       NOT AVBL
FALCON         CLEAR     54  17  23 NW13      30.30F
FORT CARSON    CLEAR     51  23  34 NW12      30.22F
LIMON          PTCLDY    43  30  60 N5        30.21F
MONUMENT HILL  CLEAR     45  19  36 SW7       30.30S
TRINIDAD       CLEAR     51  28  41 W14       30.24F
$$

COZ042>045-048>051-090-091-251100-
...NORTHEAST COLORADO...

CITY           SKY/WX    TMP DP  RH WIND       PRES   REMARKS
GREELEY ARPT   CLEAR     39  28  65 W5        30.20S
AKRON          CLEAR     47  28  47 W9        30.16S
BURLINGTON     CLEAR     47  32  56 W8        30.13F
WRAY           CLEAR     41  31  68 W8        30.12S
STERLING       CLEAR     37  32  81 SW3       30.13F
HOLYOKE        CLEAR     45  34  65 W6        30.11S
FORT MORGAN    CLEAR     38  28  67 W6        30.17F
$$

COZ086-089-092>099-251100-
...SOUTHEAST COLORADO...

CITY           SKY/WX    TMP DP  RH WIND       PRES   REMARKS
PUEBLO         PTCLDY    48  29  47 W10       30.18S
LA JUNTA       CLEAR     48  32  53 W12       30.14S
LAMAR          CLEAR     44  37  76 W5        30.10S
SPRINGFIELD      N/A     48  36  63 CALM      30.15S
$$



USA.gov is the U.S. government's official web portal to all federal, state and local government web resources and services.